TimeBST,TemperatureF,Dew PointF,Humidity,Sea Level PressureIn,VisibilityMPH,Wind Direction,Wind SpeedMPH,Gust SpeedMPH,PrecipitationIn,Events,Conditions,WindDirDegrees,DateUTC
12:20 AM,35.6,24.8,65,29.95,6.2,NNE,10.4,-,N/A,,Partly Cloudy,30,2013-04-04 23:20:00
12:50 AM,35,25,57,29.95,16,NNE,10.4,,,,Partly Cloudy,20,2013-04-04 23:50:00
12:50 AM,35.6,24.8,65,29.95,6.2,NNE,10.4,-,N/A,,Mostly Cloudy,30,2013-04-04 23:50:00
1:20 AM,35.6,26.6,70,29.95,6.2,NNE,9.2,-,N/A,,Mostly Cloudy,20,2013-04-05 00:20:00
1:50 AM,35.6,26.6,70,29.92,6.2,NNE,10.4,-,N/A,,Overcast,30,2013-04-05 00:50:00
2:20 AM,35.6,26.6,70,29.92,6.2,NNE,8.1,-,N/A,,Overcast,20,2013-04-05 01:20:00
2:50 AM,35.6,26.6,70,29.92,6.2,NNE,10.4,-,N/A,,Mostly Cloudy,20,2013-04-05 01:50:00
3:20 AM,35.6,26.6,70,29.92,6.2,NNE,10.4,-,N/A,,Mostly Cloudy,20,2013-04-05 02:20:00
3:50 AM,35,28,66,29.92,12,North,13.8,,,,Scattered Clouds,10,2013-04-05 02:50:00
3:50 AM,35.6,28.4,75,29.92,6.2,North,10.4,-,N/A,,Scattered Clouds,10,2013-04-05 02:50:00
4:20 AM,35.6,28.4,75,29.92,6.2,North,11.5,-,N/A,,Partly Cloudy,10,2013-04-05 03:20:00
4:50 AM,35.6,28.4,75,29.92,6.2,NNE,10.4,-,N/A,,Partly Cloudy,20,2013-04-05 03:50:00
5:20 AM,35.6,28.4,75,29.92,6.2,NNE,10.4,-,N/A,,Partly Cloudy,20,2013-04-05 04:20:00
5:50 AM,35.6,28.4,75,29.92,6.2,NNE,11.5,-,N/A,,Mostly Cloudy,20,2013-04-05 04:50:00
6:20 AM,37.4,28.4,70,29.92,6.2,NNE,12.7,-,N/A,,Mostly Cloudy,30,2013-04-05 05:20:00
6:50 AM,37,29,63,29.93,14,NNE,11.5,,,,,20,2013-04-05 05:50:00
6:50 AM,37.4,28.4,70,29.92,6.2,NNE,10.4,-,N/A,,Mostly Cloudy,30,2013-04-05 05:50:00
7:20 AM,37.4,28.4,70,29.92,6.2,NE,12.7,24.2,N/A,,Mostly Cloudy,40,2013-04-05 06:20:00
7:50 AM,37.4,28.4,70,29.95,6.2,NNE,15.0,-,N/A,,Mostly Cloudy,30,2013-04-05 06:50:00
8:20 AM,37.4,28.4,70,29.95,6.2,NNE,13.8,-,N/A,,Mostly Cloudy,30,2013-04-05 07:20:00
8:50 AM,37.4,28.4,70,29.95,6.2,NNE,12.7,-,N/A,,Mostly Cloudy,30,2013-04-05 07:50:00
9:20 AM,37.4,28.4,70,29.95,6.2,NNE,12.7,-,N/A,,Mostly Cloudy,30,2013-04-05 08:20:00
9:50 AM,38,29,59,29.97,14,NNE,13.8,,,,Mostly Cloudy,30,2013-04-05 08:50:00
9:50 AM,37.4,28.4,70,29.95,6.2,NNE,10.4,-,N/A,,Mostly Cloudy,30,2013-04-05 08:50:00
10:20 AM,39.2,28.4,65,29.98,6.2,NNE,15.0,-,N/A,,Mostly Cloudy,30,2013-04-05 09:20:00
10:50 AM,39.2,28.4,65,29.98,6.2,NE,11.5,-,N/A,,Mostly Cloudy,40,2013-04-05 09:50:00
11:20 AM,39.2,28.4,65,29.98,6.2,NNE,12.7,-,N/A,,Mostly Cloudy,30,2013-04-05 10:20:00
11:50 AM,41.0,26.6,57,29.98,6.2,ENE,16.1,-,N/A,,Mostly Cloudy,60,2013-04-05 10:50:00
12:20 PM,42.8,26.6,53,29.98,6.2,NE,13.8,-,N/A,,Mostly Cloudy,50,2013-04-05 11:20:00
12:50 PM,43,27,40,29.99,15,NE,12.7,,,,Mostly Cloudy,40,2013-04-05 11:50:00
12:50 PM,42.8,26.6,53,29.98,6.2,NE,13.8,-,N/A,,Mostly Cloudy,50,2013-04-05 11:50:00
1:20 PM,42.8,24.8,49,29.98,6.2,ENE,15.0,-,N/A,,Mostly Cloudy,60,2013-04-05 12:20:00
1:50 PM,44.6,24.8,46,29.98,6.2,ENE,16.1,-,N/A,,Scattered Clouds,60,2013-04-05 12:50:00
2:20 PM,44.6,23.0,43,29.98,6.2,ENE,15.0,-,N/A,,Partly Cloudy,60,2013-04-05 13:20:00
2:50 PM,46.4,21.2,37,29.98,-9999.0,ENE,15.0,-,N/A,,Clear,60,2013-04-05 13:50:00
3:20 PM,46.4,21.2,37,29.98,-9999.0,NE,13.8,-,N/A,,Clear,50,2013-04-05 14:20:00
3:50 PM,46,21,24,29.99,19,NE,17.3,,,,Scattered Clouds,50,2013-04-05 14:50:00
3:50 PM,46.4,21.2,37,29.98,-9999.0,NE,15.0,-,N/A,,Clear,50,2013-04-05 14:50:00
4:20 PM,46.4,19.4,34,29.98,-9999.0,NE,11.5,-,N/A,,Clear,40,2013-04-05 15:20:00
4:50 PM,46.4,19.4,34,30.01,-9999.0,NE,12.7,-,N/A,,Clear,40,2013-04-05 15:50:00
5:20 PM,44.6,19.4,37,30.01,-9999.0,NNE,11.5,-,N/A,,Clear,30,2013-04-05 16:20:00
5:50 PM,44.6,19.4,37,30.01,-9999.0,NNE,10.4,-,N/A,,Clear,30,2013-04-05 16:50:00
6:20 PM,44.6,19.4,37,30.04,6.2,NNE,11.5,-,N/A,,Partly Cloudy,20,2013-04-05 17:20:00
6:50 PM,43,25,35,30.05,19,NNE,12.7,,,,Mostly Cloudy,20,2013-04-05 17:50:00
6:50 PM,42.8,23.0,46,30.04,6.2,NNE,11.5,-,N/A,,Partly Cloudy,20,2013-04-05 17:50:00
7:20 PM,42.8,24.8,49,30.06,6.2,North,11.5,-,N/A,,Partly Cloudy,10,2013-04-05 18:20:00
7:50 PM,41.0,24.8,53,30.06,-9999.0,NNE,9.2,-,N/A,,Clear,20,2013-04-05 18:50:00
8:20 PM,41.0,24.8,53,30.09,-9999.0,NNE,10.4,-,N/A,,Clear,30,2013-04-05 19:20:00
8:50 PM,39.2,24.8,56,30.09,-9999.0,NNE,8.1,-,N/A,,Clear,20,2013-04-05 19:50:00
9:20 PM,39.2,24.8,56,30.09,-9999.0,North,8.1,-,N/A,,Clear,10,2013-04-05 20:20:00
9:50 PM,39,28,54,30.12,15,NNE,10.4,,,,Mostly Cloudy,20,2013-04-05 20:50:00
9:50 PM,39.2,28.4,65,30.12,-9999.0,NNE,8.1,-,N/A,,Clear,20,2013-04-05 20:50:00
10:20 PM,37.4,28.4,70,30.12,-9999.0,NNE,9.2,-,N/A,,Clear,20,2013-04-05 21:20:00
10:50 PM,37.4,30.2,75,30.12,-9999.0,North,8.1,-,N/A,,Clear,10,2013-04-05 21:50:00
11:20 PM,37.4,30.2,75,30.12,6.2,NNE,9.2,-,N/A,,Scattered Clouds,30,2013-04-05 22:20:00
11:50 PM,35.6,30.2,81,30.12,6.2,NNE,6.9,-,N/A,,Partly Cloudy,20,2013-04-05 22:50:00